sat.trackr.live / text

‹ back to catalog

STARLINK-34532

NORAD 64607 · 2025-137P

PAYLOAD ACTIVE UNKNOWN

§ Identity

Operator
Country
US
Launch date
2025-06-25
Launch site
AFETR
Launch vehicle
Mass (kg)
RCS (m²)

Purposes: comms

External: N2YO · Heavens-Above · Gunter

§ Orbital elements

Epoch: 2026-09-20T02:49:57.690912Z

Period
93.85 min
Inclination
53.1580°
Eccentricity
0.0000530
Mean motion
15.34408073 rev/d
Perigee alt
462.3 km
Apogee alt
463.0 km
Semi-major
6,840.8 km
B*
6.3997e-4
RAAN
159.1777°
Arg perigee
127.4672°
Mean anomaly
232.6379°
Rev number
7,040

§ Raw data

STARLINK-345321 64607U 25137P   26263.11802883  .00021313  00000+0  63997-3 0  99972 64607  53.1580 159.1777 0000530 127.4672 232.6379 15.34408073 70409

JSON: /api/v1/satellites/64607 · /tle

For live sub-satellite position, see the globe view (requires WebGL).

§ Visibility from observer

Set your observer location to see the next 7 days of passes ≥ 10°. The values pass through the URL so the page stays shareable.

No JS? Fill the form by hand. The geolocation button needs JavaScript.